www.pogodaiklimat.ru

Погода и климат >> Архив погоды >> Австрия >> Тульн-ан-дер-Донау


ПОГОДА в Тульн-ан-дер-Донау

  • Прогноз погоды в Тульн-ан-дер-Донау
  • Монитор погоды в Тульн-ан-дер-Донау

АРХИВ ПОГОДЫ в Тульн-ан-дер-Донау

Время (UTC), дата Ветер
(напр.,м/с)
 
Видим.   Явления Облачность Т
(С)
Тd
(С)
f
(%)
Тe
(С)
Тes
(С)
Комфортность P
(гПа)
Po
(гПа)
Тmin
(С)
Tmax
(С)
R
(мм)
R24
(мм)
S
(см)
19 11.09 З 1 н/о н/о +16.8 +12.1 74 +18 +18 1024.2 1003.2
20 11.09 В 1 н/о н/о +15.1 +12.1 82 +16 +16 1025.1 1004.0
21 11.09 штиль 0 20 км 4/0
[Ci fib]
+14.8 +12.3 85 +14 +14 1025.4 1004.3
22 11.09 З 1 н/о н/о +15.3 +12.9 86 +16 +16 1025.9 1004.8
23 11.09 ЮЗ 1 н/о н/о +15.8 +13.3 85 +16 +16 1026.2 1005.1
00 12.09 ЮЗ 1 20 км 3/0
[Ci fib]
+14.4 +12.5 88 +15 +15 1026.6 1005.4
01 12.09 ЮЗ 2 н/о н/о +14.2 +12.9 92 +14 +14 1026.7 1005.5
02 12.09 З 3 н/о н/о +15.5 +13.3 87 +15 +15 1027.1 1006.0
03 12.09 ЮЗ 1 10 км 5/4 2000 м
[Sc Ac lent Ci fib]
+15.2 +13.2 88 +16 +16 1027.6 1006.4
04 12.09 З 4 н/о н/о +15.1 +13.1 88 +14 +14 1028.1 1006.9
05 12.09 З 3 15 км 8/6 1500 м
[Sc Ac lent Ci fib]
+15.4 +13.2 87 +15 +15 1028.8 1007.6
06 12.09 З 4 20 км 3/1 2000 м
[Sc Ac lent]
+15.8 +13.2 85 +15 +15 1029.1 1008.0 +14.2
07 12.09 ЮЗ 6 н/о н/о +17.6 +13.3 76 +17 +17 1029.8 1008.8
08 12.09 З 6 н/о н/о +19.6 +13.4 67 +21 +21 комфорт 1030.2 1009.3
09 12.09 ЮЗ 6 35 км 3/1 960 м
[Cu hum Ci fib]
+21.0 +13.1 61 +23 +26 комфорт 1030.3 1009.5
10 12.09 ЮЗ 6 н/о н/о +22.3 +13.6 58 +25 +25 комфорт 1030.2 1009.5
11 12.09 ЮЗ 7 н/о н/о +22.7 +11.8 50 +25 +25 комфорт 1029.8 1009.1
12 12.09 ЮЗ 9 60 км 3/3 1200 м
[Cu hum]
+23.1 +11.5 48 +25 +26 комфорт 1029.5 1008.9
13 12.09 ЮЗ 9 н/о н/о +23.6 +11.6 47 +25 +25 комфорт 1029.2 1008.6
14 12.09 ЮЗ 9 н/о н/о +22.8 +12.2 51 +25 +25 комфорт 1029.5 1008.8
15 12.09 ЮЗ 7 60 км 4/1 1500 м
[Cu hum Ac lent Ci fib]
+22.1 +11.5 51 +24 +25 комфорт 1029.5 1008.8
16 12.09 ЮЗ 7 н/о н/о +21.6 +11.0 51 +23 +23 комфорт 1029.4 1008.6
17 12.09 ЮЗ 4 н/о н/о +20.4 +11.8 58 +22 +22 комфорт 1029.6 1008.8
18 12.09 ЮЗ 2 60 км 3/1 1500 м
[Sc Ac lent Ci fib]
+18.4 +11.7 65 +19 +19 1029.9 1008.9 +23.8
20 12.09 ЮЗ 1 н/о н/о +15.7 +11.4 76 +16 +16 1030.9 1009.7
21 12.09 ЮЗ 1 35 км 4/0
[Ac lent Ci fib]
+15.7 +11.6 77 +16 +16 1031.0 1009.8
22 12.09 ЮЗ 2 н/о н/о +15.3 +11.8 80 +15 +15 1031.0 1009.8
23 12.09 З 2 н/о н/о +15.9 +11.9 77 +16 +16 1031.0 1009.8
00 13.09 штиль 0 40 км 8/0 2000 м
[Ac trans]
+15.7 +12.2 80 +16 +16 1031.0 1009.8
01 13.09 З 1 н/о н/о +15.0 +12.0 82 +16 +16 1030.9 1009.6
02 13.09 ЮЗ 1 н/о н/о +15.0 +12.3 84 +16 +16 1030.8 1009.5
03 13.09 ЮЗ 1 30 км 9/6 2000 м
[Sc Ac lent]
+15.0 +12.1 83 +16 +16 1030.3 1009.1
04 13.09 З 2 н/о н/о +14.4 +11.8 84 +14 +14 1030.5 1009.2
05 13.09 ЮЗ 1 35 км 8/6 2000 м
[Sc Ac lent Ci fib]
+14.7 +12.1 84 +15 +15 1030.9 1009.6
06 13.09 ЮЗ 1 н/о н/о +15.8 +12.9 83 +16 +16 1030.5 1009.3 +14.4 +18.6
07 13.09 ЮЗ 1 н/о н/о +18.4 +13.3 72 +20 +20 1030.6 1009.6
08 13.09 ЮЗ 4 н/о н/о +20.6 +13.9 65 +23 +23 комфорт 1030.6 1009.8
09 13.09 ЮЗ 3 35 км 3/1 1500 м
[Sc Ac lent]
+21.4 +14.0 63 +24 +29 комфорт 1030.3 1009.5
10 13.09 ЮЗ 3 н/о н/о +24.2 +14.9 56 +27 +27 жарко 1029.5 1008.9
11 13.09 ЮЗ 5 н/о н/о +25.5 +15.2 53 +28 +28 жарко 1029.3 1008.8
12 13.09 З 3 60 км 6/6 1500 м
[Cu hum]
+24.5 +14.6 54 +27 +30 жарко 1029.0 1008.5
13 13.09 З 3 н/о н/о +26.0 +15.1 51 +29 +29 душно 1028.5 1008.1
14 13.09 СЗ 3 н/о н/о +26.0 +14.4 49 +28 +28 жарко 1028.3 1007.9
15 13.09 З 3 н/о н/о +24.8 +14.4 52 +27 +27 жарко 1028.3 1007.8
16 13.09 З 2 60 км 6/6 1350 м
[Cu med, cong Ac lent]
+24.8 +14.4 52 +27 +28 жарко 1028.1 1007.8
17 13.09 З 2 н/о н/о +22.9 +15.5 63 +27 +27 душно 1028.4 1007.8
18 13.09 СЗ 2 50 км 9/9 2000 м
[Sc]
+22.5 +14.4 60 +26 +26 жарко 1028.9 1008.2 +27.3
19 13.09 СЗ 2 н/о н/о +21.4 +14.4 64 +24 +24 комфорт 1029.4 1008.6
20 13.09 З 2 н/о н/о +20.8 +14.5 67 +24 +24 комфорт 1029.5 1008.7
21 13.09 Ю 1 25 км 9/9 2000 м
[St]
+19.8 +15.1 74 +23 +23 комфорт 1030.0 1009.1
22 13.09 ЮЗ 2 н/о н/о +18.7 +14.5 77 +20 +20 1030.1 1009.1
23 13.09 З 1 н/о н/о +17.6 +14.3 81 +19 +19 1030.2 1009.2
00 14.09 штиль 0 30 км 9/9 2000 м
[Sc Ac lent]
+16.7 +14.3 86 +17 +17 1030.4 1009.3
01 14.09 ЮЗ 2 н/о н/о +16.9 +14.4 85 +17 +17 1030.4 1009.3
02 14.09 ЮЗ 1 н/о н/о +16.3 +14.5 89 +17 +17 1030.7 1009.6
03 14.09 СЗ 1 25 км 10/9 1350 м
[Sc]
+16.5 +14.8 90 +17 +17 1031.7 1009.6
04 14.09 С 2 н/о н/о +16.2 +14.1 87 +16 +16 1031.4 1010.2
05 14.09 С 1 25 км 9/8 1050 м
[Sc Ac lent]
+15.8 +13.7 87 +16 +16 1031.9 1010.7
06 14.09 С 1 25 км 9/6 1050 м
[Sc Ac lent Ci fib]
+16.3 +13.7 85 +17 +17 1032.3 1011.1 +15.7
07 14.09 С 2 н/о н/о +17.0 +12.5 75 +17 +17 1033.0 1011.8
08 14.09 С 3 н/о н/о +19.4 +12.2 63 +21 +21 комфорт 1033.0 1012.0
09 14.09 СВ 3 40 км 8/6 900 м
[Cu Sc Ac lent Ci fib]
+20.1 +12.3 61 +22 +24 комфорт 1032.8 1011.9
10 14.09 В 1 н/о н/о +21.1 +12.6 58 +23 +23 комфорт 1032.4 1011.5
11 14.09 С 2 н/о н/о +21.3 +12.3 56 +23 +23 комфорт 1031.7 1010.9
12 14.09 С 2 40 км 8/3 1200 м
[Cu Sc Ac lent Ci fib]
+22.2 +11.9 52 +25 +29 комфорт 1031.1 1010.4
13 14.09 СВ 2 н/о н/о +21.7 +11.7 53 +24 +24 комфорт 1030.9 1010.1
14 14.09 З 1 н/о н/о +21.4 +12.1 55 +24 +24 комфорт 1030.3 1009.5
15 14.09 С 2 н/о н/о +21.1 +12.1 56 +23 +23 комфорт 1029.7 1008.9
16 14.09 С 1 н/о н/о +20.4 +11.0 55 +23 +23 комфорт 1028.9 1008.1
17 14.09 СВ 2 н/о н/о +19.1 +11.7 62 +21 +21 комфорт 1029.0 1008.1
18 14.09 ЮВ 1 30 км 4/1 1500 м
[Sc Ac lent Ci fib]
+17.1 +12.1 72 +18 +18 1029.5 1008.4 +22.7
19 14.09 В 1 н/о н/о +15.2 +11.7 80 +16 +16 1029.8 1008.6
20 14.09 В 1 н/о н/о +14.0 +11.9 87 +14 +14 1030.0 1008.7
21 14.09 штиль 0 20 км ясно +11.9 +11.7 99 +11 +11 1030.3 1008.9
22 14.09 СВ 1 н/о н/о +12.3 +10.9 91 +12 +12 1030.6 1009.1
23 14.09 С 1 н/о н/о +11.0 +10.1 94 +11 +11 1030.4 1008.8
00 15.09 СЗ 1 20 км ясно +10.9 +10.2 95 +10 +10 1029.7 1008.2
01 15.09 В 1 н/о н/о +9.9 +8.8 93 +9 +9 1029.5 1007.9
02 15.09 штиль 0 н/о н/о +9.5 +8.6 94 +9 +9 1029.1 1007.4
03 15.09 штиль 0 15 км ясно +8.8 +8.0 95 +8 +8 1028.7 1007.0
04 15.09 штиль 0 н/о н/о +8.6 +7.9 95 +8 +8 1028.4 1006.7
05 15.09 штиль 0 10 км дымка 1/1 60 м
[St Ac lent Ci fib]
+8.2 +7.6 96 +7 +7 1028.2 1006.5
06 15.09 штиль 0 35 км 3/1 150 м
[St Ac lent Ci fib]
+10.9 +8.4 85 +10 +11 1028.1 1006.6 +8.0
07 15.09 штиль 0 н/о н/о +12.3 +9.3 82 +12 +12 1027.9 1006.5
08 15.09 З 1 н/о н/о +15.5 +10.2 71 +16 +16 1026.9 1005.7
09 15.09 ЮВ 1 50 км ясно +18.3 +11.3 64 +20 +29 1026.5 1005.5
10 15.09 СВ 1 н/о н/о +20.4 +12.2 59 +23 +23 комфорт 1025.7 1004.9
11 15.09 С 1 н/о н/о +21.9 +13.0 57 +25 +25 комфорт 1024.7 1004.1
12 15.09 штиль 0 50 км 4/0
[Ci fib]
+23.4 +13.3 53 +27 +38 душно 1023.8 1003.3
13 15.09 СВ 2 н/о н/о +24.3 +13.7 52 +27 +27 жарко 1022.9 1002.5
14 15.09 СВ 2 н/о н/о +24.0 +14.0 54 +26 +26 жарко 1022.0 1001.6
15 15.09 СВ 2 60 км ясно +23.6 +14.2 56 +26 +29 жарко 1021.2 1000.8
16 15.09 В 1 н/о н/о +23.6 +14.6 57 +26 +26 жарко 1020.2 999.8
17 15.09 ЮВ 2 н/о н/о +22.0 +14.7 63 +25 +25 комфорт 1019.8 999.3
18 15.09 СВ 1 40 км 4/0
[Ci fib]
+19.1 +14.4 74 +21 +21 комфорт 1020.0 999.3 +24.7
19 15.09 штиль 0 н/о н/о +17.3 +14.5 84 +17 +17 1020.4 999.5
20 15.09 З 2 н/о н/о +16.9 +14.2 84 +17 +17 1020.6 999.7
21 15.09 ЮЗ 1 40 км 5/0
[Ci fib]
+16.3 +14.1 87 +17 +17 1020.6 999.7
22 15.09 З 2 н/о н/о +16.0 +14.0 88 +16 +16 1020.8 999.8
23 15.09 ЮЗ 2 н/о н/о +15.6 +13.9 90 +15 +15 1020.8 999.8
00 16.09 ЮЗ 1 50 км 5/0
[Ci fib]
+14.8 +13.7 93 +15 +15 1020.2 999.2
01 16.09 штиль 0 н/о н/о +13.8 +13.1 96 +13 +13 1020.2 999.1
02 16.09 ЮЗ 2 н/о н/о +14.3 +13.8 97 +14 +14 1019.9 998.8
03 16.09 ЮЗ 1 40 км 3/0
[Ci fib]
+14.9 +14.1 95 +15 +15 1019.4 998.4
04 16.09 ЮЗ 2 н/о н/о +13.3 +12.3 94 +12 +12 1019.5 998.4
05 16.09 ЮЗ 1 30 км дымка 5/3 1500 м
[Sc Ci fib]
+14.3 +13.8 97 +15 +15 1019.1 998.1
06 16.09 СЗ 1 30 км 6/3 1500 м
[Sc Ac lent Ci fib]
+16.4 +15.0 91 +17 +18 1019.4 998.2 +13.3
07 16.09 ЮЗ 2 н/о н/о +18.0 +15.7 86 +19 +19 1019.6 998.8
08 16.09 ЮЗ 2 н/о н/о +20.6 +16.6 78 +25 +25 комфорт 1019.7 999.1
09 16.09 ЮЗ 2 30 км 6/1 1500 м
[Sc Ac lent Ci fib]
+22.4 +16.2 68 +27 +32 душно 1019.4 998.9
10 16.09 З 3 н/о н/о +24.2 +14.2 54 +27 +27 жарко 1018.9 998.5
11 16.09 ЮЗ 3 н/о н/о +25.0 +14.7 53 +28 +28 жарко 1018.0 997.7
12 16.09 З 2 40 км 8/1 1500 м
[Cu Sc Ac lent Ci fib]
+26.6 +13.5 44 +29 +34 жарко 1016.7 996.6
13 16.09 З 3 н/о н/о +26.5 +15.5 51 +30 +30 душно 1016.0 995.9
14 16.09 З 4 н/о н/о +25.8 +14.4 49 +28 +28 жарко 1015.5 995.3
15 16.09 ЮЗ 6 60 км 9/0
[Ac und Ci fib]
+26.0 +12.6 43 +28 +28 жарко 1014.8 994.7
16 16.09 З 5 н/о н/о +24.4 +13.2 50 +27 +27 жарко 1014.9 994.6
17 16.09 З 2 н/о н/о +22.7 +13.0 54 +26 +26 жарко 1014.9 994.5
18 16.09 З 1 н/о н/о +22.3 +13.5 57 +25 +25 комфорт 1015.1 994.7 +15.9 +27.5
19 16.09 З 1 25 км 9/1 2000 м
[Sc Ac lent Ci fib]
+22.3 +13.5 57 +25 +25 комфорт 1015.1 994.7 +27.5
20 16.09 ЮЗ 1 н/о н/о +19.1 +14.2 73 +21 +21 комфорт 1015.7 995.1
21 16.09 З 1 25 км 9/3 1200 м
[Sc Ac lent]
+18.7 +14.6 77 +21 +21 комфорт 1015.8 995.2
22 16.09 ЮЗ 2 н/о н/о +19.1 +14.3 74 +21 +21 комфорт 1015.4 994.8
23 16.09 З 2 н/о н/о +19.1 +14.0 72 +21 +21 комфорт 1015.4 994.8
00 17.09 ЮЗ 1 25 км 10/3 1500 м
[Sc Ac lent]
+18.1 +13.8 76 +19 +19 1015.0 994.3
01 17.09 В 1 н/о н/о +17.3 +13.6 79 +18 +18 1015.1 994.3
02 17.09 ЮЗ 1 н/о н/о +17.3 +14.1 81 +18 +18 1015.1 994.3
03 17.09 ЮЗ 1 25 км 9/3 1500 м
[Sc Ac lent]
+17.4 +14.5 83 +18 +18 1014.9 994.2
04 17.09 З 2 н/о н/о +17.5 +14.9 85 +18 +18 1015.0 994.3
05 17.09 З 1 20 км 9/8 1500 м
[Sc Ac lent]
+17.6 +14.8 84 +19 +19 1015.3 994.6
06 17.09 З 4 20 км 9/8 600 м
[Cu Sc Ac lent Ci fib]
+18.1 +12.9 72 +18 +18 1015.8 995.1 +17.1
07 17.09 З 2 н/о н/о +18.5 +13.7 74 +20 +20 1016.2 995.5
08 17.09 С 2 н/о н/о +18.3 +13.5 74 +19 +19 1016.4 995.7
09 17.09 СВ 3 30 км слаб. дождь 9/9 1050 м
[Sc Ac As]
+16.5 +13.0 80 +16 +17 1016.8 996.0
10 17.09 СВ 3 н/о н/о +15.5 +12.3 81 +15 +15 1016.8 995.9 0.0
11 17.09 СЗ 1 н/о н/о +15.9 +12.1 78 +17 +17 1016.6 995.7 0.0
12 17.09 С 1 25 км в посл. час дождь 9/8 600 м
[Cu Sc Ac As Ci fib]
+16.0 +11.4 74 +17 +18 1016.1 995.2 0.0
13 17.09 Ю 1 н/о н/о +15.7 +12.0 79 +16 +16 1015.6 994.7 0.0
14 17.09 Ю 1 н/о н/о +16.1 +12.5 79 +17 +17 1014.9 994.1
15 17.09 ЮЗ 2 30 км {дождь} 9/5 1350 м
[Sc Ac lent Ci fib]
+17.4 +13.4 77 +18 +18 1014.5 993.4
16 17.09 ЮЗ 1 н/о н/о +17.4 +13.5 78 +18 +18 1013.7 993.0
17 17.09 З 1 н/о н/о +16.1 +13.5 85 +17 +17 1014.0 993.2
18 17.09 З 1 30 км {дождь} 3/0 2000 м
[Ac lent]
+15.7 +12.4 81 +16 +16 1014.6 993.7 +18.6 0.0
19 17.09 ЮЗ 3 н/о н/о +14.8 +11.2 79 +14 +14 1015.4 994.4
20 17.09 ЮЗ 3 н/о н/о +14.7 +10.9 78 +14 +14 1016.3 995.3
21 17.09 ЮЗ 4 15 км 5/3 1500 м
[Sc Ac lent Ci fib]
+14.5 +10.9 79 +13 +13 1016.5 995.5
22 17.09 З 2 н/о н/о +14.3 +10.6 78 +14 +14 1016.9 995.9
23 17.09 З 4 н/о н/о +14.5 +10.3 76 +13 +13 1017.5 996.5
00 18.09 З 2 10 км 9/8 1500 м
[Sc Ac lent Ci fib]
+14.1 +9.7 75 +14 +14 1018.4 997.3
01 18.09 З 3 н/о н/о +13.2 +7.1 66 +12 +12 1018.9 997.7
02 18.09 СЗ 3 н/о н/о +12.5 +4.7 59 +11 +11 1019.8 998.5
03 18.09 З 2 10 км 5/4 2000 м
[Sc Ac lent]
+11.7 +3.5 57 +11 +11 1020.6 999.3
04 18.09 З 4 н/о н/о +10.7 +3.9 63 +8 +8 1021.5 1000.1
05 18.09 ЮЗ 4 30 км 4/1 1050 м
[Sc Ac lent Ci fib]
+9.6 +4.3 70 +7 +7 1022.3 1000.8
06 18.09 ЮЗ 4 30 км 4/1 1050 м
[Sc Ac lent Ci fib]
+11.5 +5.3 66 +9 +10 1022.8 1001.4 +4.3
07 18.09 З 4 н/о н/о +13.2 +5.0 58 +12 +12 1023.7 1002.4
08 18.09 З 4 н/о н/о +14.2 +4.4 52 +13 +13 1024.1 1002.9
09 18.09 З 5 30 км 3/3 750 м
[Cu hum Ci fib]
+15.2 +3.0 44 +14 +17 1024.0 1002.9
10 18.09 З 4 н/о н/о +16.6 +3.2 41 +16 +16 1023.9 1002.9
11 18.09 З 4 н/о н/о +17.7 +2.0 35 +17 +17 1023.5 1002.5
12 18.09 З 4 30 км 3/3 900 м
[Cu hum Ci fib]
+18.1 +1.4 33 +18 +22 1022.9 1002.0
13 18.09 СЗ 3 н/о н/о +18.7 +0.9 30 +19 +19 1022.4 1001.5
14 18.09 СЗ 2 н/о н/о +18.1 +0.6 31 +19 +19 1022.2 1001.3
15 18.09 СЗ 3 30 км 3/1 900 м
[Cu hum Ci fib]
+18.0 0.0 30 +18 +20 1021.8 1000.9
16 18.09 СЗ 3 н/о н/о +16.5 +1.6 37 +16 +16 1021.9 1000.9
17 18.09 СЗ 2 н/о н/о +14.5 +1.8 42 +14 +14 1022.3 1001.1
18 18.09 ЮВ 1 30 км 3/0
[Ci fib]
+11.6 +3.1 56 +12 +12 1023.4 1001.9 +19.2
19 18.09 штиль 0 н/о н/о +10.0 +3.6 64 +10 +10 1024.1 1002.6

 

Местоположение метеостанции Тульн-ан-дер-Донау (Австрия): широта 48.32 долгота 16.12 высота над уровнем моря 176 м.

В архиве по умолчанию представлена погода в Тульн-ан-дер-Донау за последнюю неделю. Архивные данные за месяц целиком и за предыдущие месяцы, начиная с января 2011 года, Вы можете получить, выбрав интересующий диапазон дат из раскрывающегося списка и нажав кнопку "Ввод!".


*Определитесь, кто Вы:
робот инопланетянин человек

Внимание! Время в таблицах - всемирное. Для получения местного времени необходимо прибавить поправку, которая равна 1 ч.

Смотрите также архив погоды в соседних городах и на ближайших метеорологических станциях:

Погода в Штоккерау (Австрия) (8 км)
Погода в Мариябрунн (Австрия) (16 км)
Погода в Вене (Австрия) (20 км)
Погода в Вене город (Австрия) (23 км)
Погода в Вене Донауфельд (Австрия) (24 км)
Погода в Вене электроподстанция (Австрия) (31 км)
Погода в Лейзер Берге (Австрия) (33 км)
Погода в Гумпольдскирхене (Австрия) (34 км)
Погода в Лангенлойсе (Австрия) (35 км)
Погода в Грос-Энцерсдорфе (Австрия) (36 км)

Пояснения к столбцам:

Ветер - указаны скорость ветра в м/с - средняя за 10 мин, порывы в срок и между сроками (в фигурных скобках) и направление, откуда дует ветер: С - северный, СВ - северо-восточный, В - восточный, ЮВ - юго-восточный, Ю - южный, ЮЗ - юго-западный, З - западный, СЗ - северо-западный.
Видимость - горизонтальная дальность видимости в метрах или километрах. При видимости от 1 до 10 км при отсутствии осадков обычно наблюдается дымка, при ухудшении видимости до 1 км и менее - туман. В сухую погоду видимость может ухудшаться дымом, пылью или мглою.
Явления - указаны атмосферные явления, наблюдавшиеся в срок или в последний час перед сроком; фигурными скобками обозначены явления, наблюдавшиеся между сроками (за 1-3 часа до срока); квадратными скобками обозначены град или гололедные отложения с указанием их диаметра в мм.
Облачность - указаны через наклонную черту общая и нижняя облачность в баллах и высота нижней границы облаков в метрах; квадратными скобками обозначены формы облаков: Ci - перистые, Cs - перисто-слоистые, Cc - перисто-кучевые, Ac - высококучевые, As - высокослоистые, Sc - слоисто-кучевые, Ns - слоисто-дождевые, Cu - кучевые, Cb - кучево-дождевые. Подробнее классификацию облаков см. в Атласе облаков (PDF).
T - Температура воздуха - температура, измеренная на высоте 2 м над землей.
Td - Температура точки росы - температура, при понижении до которой содержащийся в воздухе водяной пар достигнет насыщения.
f - Относительная влажность воздуха - влажноcть воздуха, измеренная на высоте 2 м над землей.
Te - Эффективная температура - температура, которую ощущает одетый по сезону человек в тени. Характеристика душности погоды. При расчете учитывается влияние влажности воздуха и скорости ветра на теплоощущения человека.
Tes - Эффективная температура на солнце - температура, которую ощущает человек, с поправкой на солнечный нагрев. Характеристика знойности погоды. Зависит от высоты солнца над горизонтом, облачности и скорости ветра. Ночью, в пасмурную погоду, а также при ветре 12 м/с и более поправка равна нулю.
P - Атмосферное давление - приведенное к уровню моря атмосферное давление.
Po - Атмосферное давление - измеренное на уровне метеостанции атмосферное давление.
Tmin - Минимальная температура - минимум температуры воздуха на высоте 2 м над землей.
Tmax - Максимальная температура - максимум температуры воздуха на высоте 2 м над землей.
R - Количество осадков - Количество выпавших осадков за период времени, мм. При наведении курсора мыши на число - период времени, за который выпало указанное количество осадков.
R24 - Количество осадков - Количество выпавших осадков за 24 часа, мм.
S - Снежный покров - Высота снежного покрова, см. При наведении курсора мыши на число - состояние снежного покрова и степень покрытия местности в баллах.